Regional Weather Roundup
Issued by NWS Sioux Falls, SD

Home | Current Version | Previous Version | Text Only | Print | Product List | Glossary On
Versions: 1 2 3 4 5 6 7 8 9 10 11 12 13 14 15 16 17 18 19 20 21 22 23 24 25 26 27 28 29 30 31 32 33 34 35 36 37 38 39 40 41 42 43 44 45 46 47 48 49 50
000
ASUS43 KFSD 270410
RWRFSD

WEATHER ROUNDUP FOR SE SOUTH DAKOTA/SW MINNESOTA/NW IOWA
NATIONAL WEATHER SERVICE SIOUX FALLS SD
1100 PM CDT TUE MAY 26 2015

NOTE: "FAIR" INDICATES FEW OR NO CLOUDS BELOW 12,000 FEET WITH NO
SIGNIFICANT WEATHER AND OR OBSTRUCTIONS TO VISIBILITY.


SDZ038>040-050-052>070-270500-
SOUTHEAST SOUTH DAKOTA

CITY           SKY/WX    TMP DP  RH WIND       PRES   REMARKS
BROOKINGS      MOCLDY    59  54  82 W3        29.90R
CHAMBERLAIN    PTCLDY    57  53  86 CALM      29.95R
HURON          CLOUDY    61  49  64 CALM      29.89R
MADISON        FAIR      55  55 100 NW5       29.90R
MITCHELL       MOCLDY    62  53  72 NW9       29.90R
SIOUX FALLS    CLOUDY    57  53  86 CALM      29.89R
WINNER         CLOUDY    65  50  58 S5        29.97R
YANKTON        MOCLDY    61  52  72 CALM      29.90R
$$

MNZ071-072-080-081-089-090-097-098-270500-
SOUTHWEST MINNESOTA

CITY           SKY/WX    TMP DP  RH WIND       PRES   REMARKS
FAIRMONT       CLOUDY    57  52  82 W8        29.86R
JACKSON        DRIZZLE   55  55 100 NW5       29.88R
LUVERNE        CLOUDY    59  54  82 CALM      29.90R
MARSHALL       CLOUDY    57  54  88 S5        29.87R
MONTEVIDEO     CLOUDY    61  57  88 SW5       29.86S
REDWOOD FALLS  CLOUDY    57  55  93 W6        29.85R
TRACY          CLOUDY    58  56  95 SW6       29.88R
WINDOM         CLOUDY    55  55 100 CALM      29.88R
WORTHINGTON    CLOUDY    57  54  88 CALM      29.89R
$$

IAZ001>003-012>014-020>022-031-032-NEZ013-014-SDZ071-270500-
NORTHWEST IOWA

CITY           SKY/WX    TMP DP  RH WIND       PRES   REMARKS
CHEROKEE       MOCLDY    57  56  98 CALM      29.89R
DENISON        MOCLDY    57  57 100 NW6       29.89R
ESTHERVILLE    CLOUDY    56  55  97 NW5       29.87R
LE MARS        MOCLDY    57  57 100 S3        29.91R
ORANGE CITY    CLOUDY    57  55  94 CALM      29.90R
SHELDON        CLOUDY    59  57  94 W7        29.88R
SIOUX CITY     PTCLDY    58  55  90 CALM      29.91R
SPENCER        CLOUDY    57  55  93 W3        29.88R
STORM LAKE     CLOUDY    57  55  94 W6        29.90R
$$

ABBREVIATIONS USED IN REMARKS
   TC - TEMPERATURE IN CELSIUS
  WCI - WIND CHILL INDEX
   HX - HEAT INDEX
  VSB - VISIBILITY



USA.gov is the U.S. government's official web portal to all federal, state and local government web resources and services.